"Pseudo-MPEC" for P229v8O

Created 2025 Apr 27 11:31:12 UT using Find_Orb

Click here for an explanation of pseudo-MPECs

 
 Astrometry: 
     P229v8O* C2025 04 26.37776311 43 07.272+26 54 00.58   ~4QAl 22.29wXNEOCPF52
     P229v8O  C2025 04 26.38923111 43 09.990+26 53 40.05   ~4QAl 21.97wXNEOCPF52
     P229v8O  C2025 04 26.40073511 43 12.702+26 53 19.24   ~4QAl 22.15wXNEOCPF52
     P229v8O  C2025 04 26.45716811 43 26.399+26 51 33.42   ~4QH2 22.34GVNEOCPF51
     P229v8O  C2025 04 26.45781011 43 26.555+26 51 31.94   ~4QH2 21.66GVNEOCPF51
     P229v8O KC2025 04 27.12854111 46 40.818+26 34 17.76   ~4R3l       VNEOCPV06
     P229v8O KC2025 04 27.13078411 46 41.311+26 34 14.45   ~4R3l 22.76GVNEOCPV06
     P229v8O KC2025 04 27.13302911 46 41.704+26 34 11.82   ~4R3l 22.63GVNEOCPV06
     P229v8O KC2025 04 27.13527311 46 42.211+26 34 08.26   ~4R3l 22.76GVNEOCPV06

Station data:
(F51) Pan-STARRS 1, Haleakala  (N20.707234 W156.255910)  US/Hawaii.
   Observers J. Bulger, T. Lowe, A. Schultz, M. Willman. Measurers K.
   Chambers, S. Chastel, T. de Boer, L. Denneau, J. Fairlamb, H. Flewelling,
   M. Huber, C.-C. Lin, E. Magnier, Y. Ramanjooloo, R. Wainscoat, R. Weryk.
   1.8-m Ritchey-Chrétien + CCD.
(F52) Pan-STARRS 2, Haleakala  (N20.707382 W156.255910)  US/Hawaii.
   Observers J. Bulger, T. Dukes, T. Lowe, A. Schultz, M. Willman. Measurers
   K. Chambers, S. Chastel, T. de Boer, L. Denneau, J. Fairlamb, H.
   Flewelling, M. Huber, C.-C. Lin, E. Magnier, Y. Ramanjooloo, R. Wainscoat,
   R. Weryk. 1.8-m Ritchey-Chrétien + CCD.
(V06) Catalina Sky Survey-Kuiper  (N32.416871 W110.732550)  US/Arizona.
   Observers T. A. Pruyne, B. M. Africano, E. J. Christensen, G. A. Farneth,
   D. C. Fuls, A. R. Gibbs, A. D. Grauer, H. Gröller, J. A. Johnson, R. A.
   Kowalski, S. M. Larson, G. J. Leonard, D. Rankin, R. L. Seaman, F. C.
   Shelly, K. W. Wierzchoś. 1.55-m reflector + CCD.

Orbital elements:  P229v8O
   Perihelion 2025 Feb 3.95722 +/- 0.402 TT = 22:58:23 (JD 2460710.45722)
Epoch 2025 Apr 27.0 TT = JDT 2460792.5   Earth MOID: 0.0021      AutoNEOCP
M 114.26692741 +/- 0.20             (J2000 ecliptic)
n   1.39277251 +/- 0.0045           Peri.  215.60571 +/- 0.22
a   0.79411352 +/- 0.00171          Node   208.36045 +/- 0.10
e   0.4562900 +/- 0.00406           Incl.   12.36641 +/- 0.15
P   0.708/258.472d         H 26.63  G  0.15   U  9.1
q 0.43176740 +/- 0.00414    Q 1.15645963 +/- 0.000874
From 9 observations 2025 Apr. 26-27 (18.2 hr); mean residual 0".24
Residuals in arcseconds: 
250426 F52  .08-  .02-    250426 F51  .02+  .11+    250427 V06  .30+  .06-    
250426 F52  .13+  .01-    250426 F51  .03-  .13-    250427 V06  .41-  .19+    
250426 F52  .05-  .05+    250427 V06  .32-  .38+    250427 V06  .42+  .49-    

Ephemerides (geocentric):
Date (UTC) HH   RA             Dec           delta  r     elong  mag " sig PA
---- --------  ------------   ------------  ------ ------ -----  --- --------
2025 04 27 12  11 48 06.312   +26 26 04.15  .06395 1.0450 125.5 22.7 2.28 113
2025 04 27 13  11 48 15.900   +26 25 08.58  .06425 1.0452 125.5 22.7 2.57 113
2025 04 27 14  11 48 25.403   +26 24 13.39  .06456 1.0454 125.5 22.7 2.86 113
2025 04 27 15  11 48 34.822   +26 23 18.57  .06486 1.0456 125.5 22.7 3.17 113
2025 04 27 16  11 48 44.158   +26 22 24.13  .06517 1.0458 125.5 22.7 3.49 113
2025 04 27 17  11 48 53.413   +26 21 30.06  .06547 1.0460 125.5 22.7 3.81 113
2025 04 27 18  11 49 02.588   +26 20 36.35  .06578 1.0462 125.5 22.7 4.15 113
2025 04 27 19  11 49 11.684   +26 19 43.00  .06608 1.0464 125.5 22.7 4.49 113
2025 04 27 20  11 49 20.702   +26 18 50.00  .06639 1.0466 125.5 22.7 4.84 113
2025 04 27 21  11 49 29.643   +26 17 57.35  .06669 1.0468 125.5 22.8 5.20 113
2025 04 27 22  11 49 38.508   +26 17 05.05  .06700 1.0470 125.5 22.8 5.57 113
2025 04 27 23  11 49 47.299   +26 16 13.08  .06730 1.0472 125.5 22.8 5.95 113
2025 04 28 00  11 49 56.017   +26 15 21.44  .06761 1.0474 125.5 22.8 6.33 113
2025 04 28 01  11 50 04.662   +26 14 30.14  .06792 1.0476 125.5 22.8 6.72 113
2025 04 28 02  11 50 13.235   +26 13 39.16  .06822 1.0478 125.5 22.8 7.11 113
2025 04 28 03  11 50 21.738   +26 12 48.50  .06853 1.0480 125.5 22.8 7.52 113
2025 04 28 04  11 50 30.172   +26 11 58.16  .06883 1.0482 125.5 22.8 7.93 113
2025 04 28 05  11 50 38.537   +26 11 08.13  .06914 1.0484 125.5 22.8 8.34 113
2025 04 28 06  11 50 46.834   +26 10 18.41  .06944 1.0486 125.5 22.8 8.76 113
2025 04 28 07  11 50 55.065   +26 09 29.00  .06975 1.0488 125.4 22.9 9.19 113
2025 04 28 08  11 51 03.230   +26 08 39.88  .07005 1.0490 125.4 22.9 9.62 113
2025 04 28 09  11 51 11.331   +26 07 51.06  .07036 1.0492 125.4 22.9 10.1 113
2025 04 28 10  11 51 19.368   +26 07 02.54  .07067 1.0494 125.4 22.9 10.5 113
2025 04 28 11  11 51 27.341   +26 06 14.30  .07097 1.0496 125.4 22.9 11.0 113
2025 04 28 12  11 51 35.253   +26 05 26.35  .07128 1.0498 125.4 22.9 11.4 113
2025 04 28 13  11 51 43.103   +26 04 38.68  .07158 1.0500 125.4 22.9 11.9 113
2025 04 28 14  11 51 50.893   +26 03 51.28  .07189 1.0502 125.4 22.9 12.3 113
2025 04 28 15  11 51 58.623   +26 03 04.17  .07220 1.0504 125.4 22.9 12.8 113
2025 04 28 16  11 52 06.294   +26 02 17.32  .07250 1.0506 125.4 22.9 13.3 113
2025 04 28 17  11 52 13.907   +26 01 30.74  .07281 1.0508 125.4 22.9 13.7 113
2025 04 28 18  11 52 21.463   +26 00 44.42  .07311 1.0510 125.4 23.0 14.2 113
2025 04 28 19  11 52 28.962   +25 59 58.36  .07342 1.0512 125.4 23.0 14.7 113
2025 04 28 20  11 52 36.405   +25 59 12.57  .07373 1.0514 125.4 23.0 15.2 113
2025 04 28 21  11 52 43.794   +25 58 27.02  .07403 1.0516 125.4 23.0 15.7 113
2025 04 28 22  11 52 51.128   +25 57 41.73  .07434 1.0518 125.4 23.0 16.2 113
2025 04 28 23  11 52 58.408   +25 56 56.68  .07464 1.0520 125.4 23.0 16.7 113
2025 04 29 00  11 53 05.635   +25 56 11.88  .07495 1.0521 125.4 23.0 17.2 113
2025 04 29 01  11 53 12.811   +25 55 27.32  .07526 1.0523 125.3 23.0 17.7 113
2025 04 29 02  11 53 19.934   +25 54 43.00  .07556 1.0525 125.3 23.0 18.2 113
2025 04 29 03  11 53 27.007   +25 53 58.91  .07587 1.0527 125.3 23.0 18.7 113
2025 04 29 04  11 53 34.029   +25 53 15.06  .07617 1.0529 125.3 23.0 19.2 113
2025 04 29 05  11 53 41.002   +25 52 31.43  .07648 1.0531 125.3 23.1 19.7 113
2025 04 29 06  11 53 47.926   +25 51 48.03  .07679 1.0533 125.3 23.1 20.2 113
2025 04 29 07  11 53 54.801   +25 51 04.86  .07709 1.0535 125.3 23.1 20.8 113
2025 04 29 08  11 54 01.629   +25 50 21.91  .07740 1.0537 125.3 23.1 21.3 113
2025 04 29 09  11 54 08.410   +25 49 39.18  .07771 1.0539 125.3 23.1 21.8 113
2025 04 29 10  11 54 15.144   +25 48 56.66  .07801 1.0541 125.3 23.1 22.3 114
2025 04 29 11  11 54 21.832   +25 48 14.36  .07832 1.0543 125.3 23.1 22.9 114